Hourly Data Report for October 05, 2017

All times are specified in Local Standard Time (LST). Add 1 hour to adjust for Daylight Saving Time where and when it is observed.

GIMLI CLIMATE
MANITOBA

50°38'00.000" N
97°03'00.000" W
230.10 m
5031042
71748
PGH

Download Data

Hourly Data (October 2017)
Hourly Data Report for October 5, 2017
Temp Definition
°C
Dew Point Temp Definition
°C
Rel Hum Definition
%
Wind Dir Definition
10's deg

Wind Spd Definition
km/h
Visibility Definition
km
Stn Press Definition
kPa
Hmdx Definition


Wind Chill Definition


Weather Definition


TIME
00:00 4.9 1.3 78 33 6   99.06     LegendNANA
01:00 5.6 2.1 78 32 9   99.09     LegendNANA
02:00 6.1 1.7 73 30 7   99.11     LegendNANA
03:00 4.7 1.3 79 28 9   99.14     LegendNANA
04:00 4.4 1.2 80 32 10   99.16     LegendNANA
05:00 4.2 1.4 82 32 11   99.18     LegendNANA
06:00 3.4 1.1 85 32 10   99.19     LegendNANA
07:00 2.5 0.8 88 29 9   99.24     LegendNANA
08:00 4.9 1.2 77 31 11   99.26     LegendNANA
09:00 7.1 0.2 61 33 13   99.28     LegendNANA
10:00 9.6 -2.7 42 33 16   99.28     LegendNANA
11:00 9.8 -2.6 42 34 17   99.27     LegendNANA
12:00 10.8 -2.1 40 34 14   99.24     LegendNANA
13:00 11.0 -1.9 41 30 13   99.18     LegendNANA
14:00 12.1 -2.0 37 32 15   99.16     LegendNANA
15:00 12.3 -2.0 37 29 10   99.10     LegendNANA
16:00 12.5 0.5 44 27 17   99.07     LegendNANA
17:00 11.2 0.9 49 25 17   99.04     LegendNANA
18:00 7.3 0.3 61 23 10   99.02     LegendNANA
19:00 4.3 -0.3 72 21 7   99.00     LegendNANA
20:00 3.1 -0.2 79 22 6   98.99     LegendNANA
21:00 2.9 -0.4 79 23 6   98.95     LegendNANA
22:00 1.2 -1.5 82 21 8   98.91     LegendNANA
23:00 1.7 -0.7 84 19 8   98.88     LegendNANA

Notes on Data Quality.

Legend

  • E = Estimated
  • M = Missing
  • NA = Not Available
  • ‡ = Partner data that is not subject to review by the National Climate Archives
Date modified: